| time (UTC) | temp F | wind direction | speed knots | gust knots | rain 1hr in | rain 24hr in | rain mn in | humidity % | barometer mb |
| 20260906225543 | 98 | 204 | 1.7 | 6.1 | 0.00 | 0.00 | 0.00 | 43 | 1010.7 |
| 20260906225043 | 99 | 113 | 1.7 | 5.2 | 0.00 | 0.00 | 0.00 | 43 | 1010.7 |
| 20260906224556 | 99 | 110 | 0.9 | 4.3 | 0.00 | 0.00 | 0.00 | 42 | 1010.6 |
| 20260906224042 | 99 | 102 | 0.9 | 7.0 | 0.00 | 0.00 | 0.00 | 42 | 1010.6 |
| 20260906223543 | 98 | 144 | 1.7 | 7.0 | 0.00 | 0.00 | 0.00 | 42 | 1010.7 |
| 20260906223054 | 98 | 92 | 0.9 | 5.2 | 0.00 | 0.00 | 0.00 | 43 | 1010.7 |
| 20260906222543 | 98 | 103 | 0.9 | 8.7 | 0.00 | 0.00 | 0.00 | 43 | 1010.8 |
| 20260906222042 | 98 | 0 | 1.7 | 8.7 | 0.00 | 0.00 | 0.00 | 43 | 1010.8 |
| 20260906221555 | 99 | 69 | 1.7 | 5.2 | 0.00 | 0.00 | 0.00 | 42 | 1010.8 |
| 20260906221042 | 99 | 59 | 1.7 | 5.2 | 0.00 | 0.00 | 0.00 | 42 | 1010.9 |
| 20260906220543 | 99 | 0 | 0.9 | 7.0 | 0.00 | 0.00 | 0.00 | 43 | 1010.8 |
| 20260906215547 | 99 | 101 | 1.7 | 8.7 | 0.00 | 0.00 | 0.00 | 42 | 1010.8 |
| 20260906215043 | 99 | 74 | 2.6 | 7.8 | 0.00 | 0.00 | 0.00 | 43 | 1011.0 |
| 20260906214559 | 99 | 75 | 2.6 | 6.1 | 0.00 | 0.00 | 0.00 | 43 | 1011.1 |
| 20260906214043 | 99 | 83 | 1.7 | 6.1 | 0.00 | 0.00 | 0.00 | 43 | 1011.1 |
| 20260906213543 | 99 | 0 | 0.0 | 5.2 | 0.00 | 0.00 | 0.00 | 43 | 1011.1 |
| 20260906213102 | 98 | 107 | 1.7 | 5.2 | 0.00 | 0.00 | 0.00 | 43 | 1011.3 |
| 20260906212543 | 98 | 105 | 0.0 | 7.0 | 0.00 | 0.00 | 0.00 | 45 | 1011.4 |
| 20260906212042 | 98 | 162 | 1.7 | 7.8 | 0.00 | 0.00 | 0.00 | 44 | 1011.5 |
| 20260906211551 | 98 | 89 | 2.6 | 7.8 | 0.00 | 0.00 | 0.00 | 43 | 1011.6 |
| 20260906211043 | 99 | 91 | 1.7 | 7.8 | 0.00 | 0.00 | 0.00 | 44 | 1011.5 |
| 20260906210545 | 98 | 61 | 1.7 | 7.8 | 0.00 | 0.00 | 0.00 | 44 | 1011.5 |
| 20260906210113 | 98 | 88 | 2.6 | 7.8 | 0.00 | 0.00 | 0.00 | 44 | 1011.6 |
| 20260906205545 | 98 | 141 | 2.6 | 7.8 | 0.00 | 0.00 | 0.00 | 45 | 1011.7 |
| 20260906205042 | 97 | 88 | 1.7 | 9.6 | 0.00 | 0.00 | 0.00 | 45 | 1011.7 |
| 20260906204557 | 97 | 87 | 1.7 | 9.6 | 0.00 | 0.00 | 0.00 | 44 | 1011.9 |
| 20260906204043 | 98 | 81 | 0.9 | 7.0 | 0.00 | 0.00 | 0.00 | 45 | 1011.9 |
| 20260906203544 | 98 | 63 | 1.7 | 8.7 | 0.00 | 0.00 | 0.00 | 45 | 1012.0 |
| 20260906203105 | 98 | 83 | 1.7 | 8.7 | 0.00 | 0.00 | 0.00 | 45 | 1011.9 |
| 20260906202543 | 98 | 126 | 1.7 | 7.8 | 0.00 | 0.00 | 0.00 | 45 | 1012.0 |
| 20260906202043 | 98 | 221 | 2.6 | 7.8 | 0.00 | 0.00 | 0.00 | 44 | 1012.0 |
| 20260906201604 | 98 | 160 | 1.7 | 7.8 | 0.00 | 0.00 | 0.00 | 44 | 1012.2 |
| 20260906201046 | 98 | 207 | 1.7 | 7.8 | 0.00 | 0.00 | 0.00 | 46 | 1012.1 |
| 20260906200544 | 98 | 90 | 0.9 | 7.8 | 0.00 | 0.00 | 0.00 | 45 | 1012.2 |
| 20260906200108 | 98 | 98 | 1.7 | 7.8 | 0.00 | 0.00 | 0.00 | 45 | 1012.3 |
| 20260906195547 | 98 | 178 | 1.7 | 5.2 | 0.00 | 0.00 | 0.00 | 47 | 1012.3 |
| 20260906195044 | 98 | 71 | 0.0 | 7.0 | 0.00 | 0.00 | 0.00 | 47 | 1012.4 |
| 20260906194556 | 98 | 127 | 1.7 | 7.0 | 0.00 | 0.00 | 0.00 | 46 | 1012.4 |
| 20260906194048 | 98 | 74 | 0.9 | 7.0 | 0.00 | 0.00 | 0.00 | 46 | 1012.5 |
| 20260906193547 | 97 | 225 | 1.7 | 7.0 | 0.00 | 0.00 | 0.00 | 46 | 1012.5 |
| 20260906193103 | 97 | 261 | 2.6 | 7.0 | 0.00 | 0.00 | 0.00 | 48 | 1012.5 |
| 20260906192547 | 96 | 104 | 0.9 | 8.7 | 0.00 | 0.00 | 0.00 | 47 | 1012.5 |
| 20260906192044 | 96 | 103 | 2.6 | 8.7 | 0.00 | 0.00 | 0.00 | 47 | 1012.7 |
| 20260906191559 | 97 | 92 | 1.7 | 8.7 | 0.00 | 0.00 | 0.00 | 47 | 1012.9 |
| 20260906191046 | 96 | 92 | 1.7 | 6.1 | 0.00 | 0.00 | 0.00 | 48 | 1012.8 |
| 20260906190548 | 96 | 140 | 1.7 | 8.7 | 0.00 | 0.00 | 0.00 | 47 | 1012.9 |
| 20260906190103 | 95 | 78 | 2.6 | 8.7 | 0.00 | 0.00 | 0.00 | 48 | 1012.9 |
| 20260906185544 | 96 | 85 | 1.7 | 8.7 | 0.00 | 0.00 | 0.00 | 48 | 1013.0 |
| 20260906185045 | 96 | 69 | 2.6 | 8.7 | 0.00 | 0.00 | 0.00 | 48 | 1013.1 |
| 20260906184619 | 96 | 74 | 2.6 | 9.6 | 0.00 | 0.00 | 0.00 | 48 | 1013.1 |
| 20260906184047 | 96 | 66 | 3.5 | 9.6 | 0.00 | 0.00 | 0.00 | 49 | 1013.2 |
| 20260906183544 | 96 | 39 | 1.7 | 8.7 | 0.00 | 0.00 | 0.00 | 49 | 1013.2 |
| 20260906183101 | 96 | 360 | 0.9 | 8.7 | 0.00 | 0.00 | 0.00 | 49 | 1013.3 |
| 20260906182545 | 96 | 102 | 2.6 | 7.8 | 0.00 | 0.00 | 0.00 | 49 | 1013.3 |
| 20260906182045 | 96 | 88 | 0.9 | 6.1 | 0.00 | 0.00 | 0.00 | 49 | 1013.4 |
| 20260906181602 | 96 | 59 | 1.7 | 6.1 | 0.00 | 0.00 | 0.00 | 49 | 1013.5 |
| 20260906181045 | 95 | 65 | 1.7 | 7.0 | 0.00 | 0.00 | 0.00 | 50 | 1013.6 |
| 20260906180545 | 95 | 107 | 1.7 | 9.6 | 0.00 | 0.00 | 0.00 | 50 | 1013.7 |
| 20260906180055 | 95 | 106 | 1.7 | 9.6 | 0.00 | 0.00 | 0.00 | 49 | 1013.5 |
| 20260906175548 | 95 | 235 | 1.7 | 7.8 | 0.00 | 0.00 | 0.00 | 50 | 1013.7 |
| 20260906175048 | 95 | 55 | 1.7 | 7.8 | 0.00 | 0.00 | 0.00 | 51 | 1013.9 |
| 20260906174552 | 95 | 194 | 2.6 | 7.8 | 0.00 | 0.00 | 0.00 | 49 | 1013.8 |
| 20260906174045 | 95 | 0 | 0.0 | 7.8 | 0.00 | 0.00 | 0.00 | 52 | 1014.0 |
| 20260906173545 | 95 | 113 | 2.6 | 7.8 | 0.00 | 0.00 | 0.00 | 51 | 1014.2 |
| 20260906173058 | 95 | 202 | 1.7 | 7.8 | 0.00 | 0.00 | 0.00 | 51 | 1014.2 |
| 20260906172547 | 95 | 117 | 0.9 | 7.8 | 0.00 | 0.00 | 0.00 | 53 | 1014.3 |
| 20260906172045 | 94 | 148 | 0.9 | 5.2 | 0.00 | 0.00 | 0.00 | 53 | 1014.3 |
| 20260906171555 | 94 | 157 | 0.9 | 6.1 | 0.00 | 0.00 | 0.00 | 53 | 1014.4 |
| 20260906171044 | 94 | 163 | 2.6 | 6.1 | 0.00 | 0.00 | 0.00 | 53 | 1014.4 |
| 20260906170544 | 94 | 128 | 1.7 | 7.0 | 0.00 | 0.00 | 0.00 | 54 | 1014.4 |
| 20260906170052 | 94 | 199 | 0.9 | 7.0 | 0.00 | 0.00 | 0.00 | 54 | 1014.5 |
| 20260906165545 | 93 | 205 | 0.9 | 6.1 | 0.00 | 0.00 | 0.00 | 55 | 1014.5 |
| 20260906165045 | 93 | 0 | 1.7 | 8.7 | 0.00 | 0.00 | 0.00 | 54 | 1014.6 |
| 20260906164603 | 93 | 221 | 0.9 | 9.6 | 0.00 | 0.00 | 0.00 | 55 | 1014.7 |
| 20260906164045 | 93 | 70 | 0.9 | 9.6 | 0.00 | 0.00 | 0.00 | 57 | 1014.9 |
| 20260906163545 | 93 | 81 | 1.7 | 5.2 | 0.00 | 0.00 | 0.00 | 55 | 1014.9 |
| 20260906163112 | 93 | 0 | 0.0 | 7.8 | 0.00 | 0.00 | 0.00 | 57 | 1014.9 |
| 20260906162545 | 92 | 157 | 1.7 | 7.8 | 0.00 | 0.00 | 0.00 | 57 | 1014.8 |
| 20260906162045 | 92 | 131 | 1.7 | 7.8 | 0.00 | 0.00 | 0.00 | 59 | 1014.8 |
| 20260906161622 | 92 | 0 | 1.7 | 5.2 | 0.00 | 0.00 | 0.00 | 57 | 1014.9 |
| 20260906161044 | 92 | 194 | 0.9 | 5.2 | 0.00 | 0.00 | 0.00 | 60 | 1014.8 |
| 20260906160545 | 91 | 107 | 0.9 | 5.2 | 0.00 | 0.00 | 0.00 | 60 | 1014.9 |
| 20260906160109 | 91 | 198 | 0.9 | 3.5 | 0.00 | 0.00 | 0.00 | 60 | 1014.9 |
| 20260906155545 | 91 | 120 | 0.9 | 3.5 | 0.00 | 0.00 | 0.00 | 60 | 1014.7 |
| 20260906155044 | 91 | 125 | 0.0 | 5.2 | 0.00 | 0.00 | 0.00 | 62 | 1014.8 |
| 20260906154605 | 91 | 78 | 1.7 | 5.2 | 0.00 | 0.00 | 0.00 | 62 | 1014.9 |
| 20260906154044 | 91 | 206 | 0.9 | 4.3 | 0.00 | 0.00 | 0.00 | 62 | 1014.8 |
| 20260906153544 | 91 | 103 | 0.9 | 3.5 | 0.00 | 0.00 | 0.00 | 63 | 1014.8 |
| 20260906153059 | 91 | 0 | 0.9 | 3.5 | 0.00 | 0.00 | 0.00 | 63 | 1014.6 |
| 20260906152545 | 91 | 93 | 0.0 | 3.5 | 0.00 | 0.00 | 0.00 | 62 | 1014.4 |
| 20260906152047 | 90 | 159 | 0.0 | 2.6 | 0.00 | 0.00 | 0.00 | 64 | 1014.4 |
| 20260906151554 | 90 | 0 | 0.9 | 2.6 | 0.00 | 0.00 | 0.00 | 64 | 1014.4 |
| 20260906151047 | 90 | 107 | 0.0 | 3.5 | 0.00 | 0.00 | 0.00 | 65 | 1014.4 |
| 20260906150547 | 89 | 109 | 0.9 | 3.5 | 0.00 | 0.00 | 0.00 | 66 | 1014.2 |
| 20260906150105 | 89 | 142 | 0.0 | 3.5 | 0.00 | 0.00 | 0.00 | 67 | 1014.2 |
| 20260906145551 | 88 | 0 | 0.9 | 2.6 | 0.00 | 0.00 | 0.00 | 67 | 1014.2 |
| 20260906145050 | 88 | 84 | 0.9 | 4.3 | 0.00 | 0.00 | 0.00 | 67 | 1014.1 |
| 20260906144611 | 88 | 192 | 0.9 | 4.3 | 0.00 | 0.00 | 0.00 | 68 | 1014.2 |
| 20260906144047 | 88 | 139 | 0.0 | 3.5 | 0.00 | 0.00 | 0.00 | 68 | 1014.2 |
| 20260906143547 | 87 | 89 | 0.0 | 3.5 | 0.00 | 0.00 | 0.00 | 69 | 1014.2 |
| 20260906143058 | 87 | 96 | 0.9 | 3.5 | 0.00 | 0.00 | 0.00 | 69 | 1014.2 |
| 20260906142546 | 87 | 0 | 0.9 | 2.6 | 0.00 | 0.00 | 0.00 | 69 | 1014.2 |
| 20260906142047 | 87 | 77 | 0.9 | 3.5 | 0.00 | 0.00 | 0.00 | 69 | 1014.1 |
| 20260906141620 | 87 | 76 | 0.0 | 3.5 | 0.00 | 0.00 | 0.00 | 70 | 1014.1 |
| 20260906141047 | 87 | 76 | 0.0 | 2.6 | 0.00 | 0.00 | 0.00 | 70 | 1014.1 |
| 20260906140547 | 86 | 0 | 0.0 | 0.9 | 0.00 | 0.00 | 0.00 | 71 | 1014.0 |
| 20260906140121 | 86 | 0 | 0.0 | 1.7 | 0.00 | 0.00 | 0.00 | 71 | 1014.2 |
| 20260906135547 | 86 | 95 | 0.0 | 1.7 | 0.00 | 0.00 | 0.00 | 72 | 1014.3 |
| 20260906135047 | 85 | 0 | 0.0 | 1.7 | 0.00 | 0.00 | 0.00 | 73 | 1014.2 |
| 20260906134605 | 84 | 0 | 0.0 | 1.7 | 0.00 | 0.00 | 0.00 | 74 | 1014.1 |
| 20260906134049 | 84 | 0 | 0.0 | 1.7 | 0.00 | 0.00 | 0.00 | 76 | 1014.1 |
| 20260906133546 | 83 | 0 | 0.0 | 1.7 | 0.00 | 0.00 | 0.00 | 76 | 1014.1 |
| 20260906133056 | 83 | 0 | 0.0 | 1.7 | 0.00 | 0.00 | 0.00 | 77 | 1014.1 |
| 20260906132547 | 82 | 149 | 0.0 | 1.7 | 0.00 | 0.00 | 0.00 | 79 | 1014.1 |
| 20260906132044 | 81 | 0 | 0.0 | 0.9 | 0.00 | 0.00 | 0.00 | 80 | 1014.2 |
| 20260906131606 | 80 | 0 | 0.0 | 0.0 | 0.00 | 0.00 | 0.00 | 82 | 1014.1 |
| 20260906131047 | 80 | 0 | 0.0 | 0.0 | 0.00 | 0.00 | 0.00 | 83 | 1014.1 |
| 20260906130547 | 79 | 0 | 0.0 | 0.0 | 0.00 | 0.00 | 0.00 | 84 | 1014.1 |
| 20260906130147 | 79 | 0 | 0.0 | 0.0 | 0.00 | 0.00 | 0.00 | 84 | 1014.0 |
| 20260906125548 | 78 | 0 | 0.0 | 0.0 | 0.00 | 0.00 | 0.00 | 84 | 1013.9 |
| 20260906125046 | 78 | 0 | 0.0 | 0.0 | 0.00 | 0.00 | 0.00 | 84 | 1013.8 |
| 20260906124610 | 78 | 0 | 0.0 | 0.0 | 0.00 | 0.00 | 0.00 | 84 | 1013.8 |
| 20260906124047 | 78 | 0 | 0.0 | 0.0 | 0.00 | 0.00 | 0.00 | 84 | 1013.8 |
| 20260906123544 | 78 | 0 | 0.0 | 0.0 | 0.00 | 0.00 | 0.00 | 84 | 1013.7 |
| 20260906123053 | 78 | 0 | 0.0 | 0.0 | 0.00 | 0.00 | 0.00 | 84 | 1013.7 |
| 20260906122547 | 78 | 0 | 0.0 | 0.0 | 0.00 | 0.00 | 0.00 | 84 | 1013.6 |
| 20260906122044 | 78 | 0 | 0.0 | 0.0 | 0.00 | 0.00 | 0.00 | 84 | 1013.5 |
| 20260906121602 | 78 | 0 | 0.0 | 0.0 | 0.00 | 0.00 | 0.00 | 84 | 1013.3 |
| 20260906121044 | 78 | 0 | 0.0 | 0.0 | 0.00 | 0.00 | 0.00 | 84 | 1013.4 |
| 20260906120544 | 78 | 0 | 0.0 | 0.0 | 0.00 | 0.00 | 0.00 | 84 | 1013.3 |
| 20260906120107 | 78 | 0 | 0.0 | 0.0 | 0.00 | 0.00 | 0.00 | 83 | 1013.3 |
| 20260906115545 | 78 | 0 | 0.0 | 0.0 | 0.00 | 0.00 | 0.00 | 83 | 1013.4 |
| 20260906115045 | 78 | 0 | 0.0 | 0.0 | 0.00 | 0.00 | 0.00 | 83 | 1013.2 |
| 20260906114553 | 78 | 0 | 0.0 | 0.0 | 0.00 | 0.00 | 0.00 | 82 | 1013.2 |
| 20260906114046 | 78 | 0 | 0.0 | 0.0 | 0.00 | 0.00 | 0.00 | 82 | 1013.0 |
| 20260906113543 | 78 | 0 | 0.0 | 0.0 | 0.00 | 0.00 | 0.00 | 82 | 1013.1 |
| 20260906113056 | 78 | 0 | 0.0 | 0.0 | 0.00 | 0.00 | 0.00 | 81 | 1013.1 |
| 20260906112544 | 79 | 0 | 0.0 | 0.0 | 0.00 | 0.00 | 0.00 | 82 | 1013.0 |
| 20260906112044 | 79 | 0 | 0.0 | 0.0 | 0.00 | 0.00 | 0.00 | 82 | 1012.9 |
| 20260906111602 | 79 | 0 | 0.0 | 0.0 | 0.00 | 0.00 | 0.00 | 82 | 1013.0 |
| 20260906111046 | 79 | 0 | 0.0 | 0.0 | 0.00 | 0.00 | 0.00 | 82 | 1013.0 |
| 20260906110544 | 79 | 0 | 0.0 | 0.0 | 0.00 | 0.00 | 0.00 | 83 | 1013.0 |
| 20260906110054 | 79 | 0 | 0.0 | 0.0 | 0.00 | 0.00 | 0.00 | 82 | 1012.8 |
| 20260906105544 | 79 | 0 | 0.0 | 0.0 | 0.00 | 0.00 | 0.00 | 82 | 1012.8 |
| 20260906105046 | 79 | 0 | 0.0 | 0.0 | 0.00 | 0.00 | 0.00 | 82 | 1012.8 |
| 20260906104648 | 79 | 0 | 0.0 | 0.0 | 0.00 | 0.00 | 0.00 | 81 | 1012.8 |
| 20260906104044 | 79 | 0 | 0.0 | 0.0 | 0.00 | 0.00 | 0.00 | 81 | 1012.8 |
| 20260906103545 | 79 | 0 | 0.0 | 0.0 | 0.00 | 0.00 | 0.00 | 81 | 1012.8 |
| 20260906103057 | 79 | 0 | 0.0 | 0.0 | 0.00 | 0.00 | 0.00 | 81 | 1012.9 |
| 20260906102548 | 79 | 0 | 0.0 | 0.0 | 0.00 | 0.00 | 0.00 | 81 | 1012.8 |
| 20260906102044 | 79 | 0 | 0.0 | 0.0 | 0.00 | 0.00 | 0.00 | 81 | 1012.8 |
| 20260906101553 | 80 | 0 | 0.0 | 0.0 | 0.00 | 0.00 | 0.00 | 81 | 1012.7 |
| 20260906101044 | 80 | 0 | 0.0 | 0.0 | 0.00 | 0.00 | 0.00 | 80 | 1012.7 |
| 20260906100547 | 80 | 0 | 0.0 | 0.0 | 0.00 | 0.00 | 0.00 | 79 | 1012.6 |
| 20260906100054 | 80 | 0 | 0.0 | 0.0 | 0.00 | 0.00 | 0.00 | 79 | 1012.6 |
| 20260906095544 | 80 | 0 | 0.0 | 0.0 | 0.00 | 0.00 | 0.00 | 79 | 1012.5 |
| 20260906095044 | 80 | 0 | 0.0 | 0.0 | 0.00 | 0.00 | 0.00 | 79 | 1012.4 |
| 20260906094556 | 81 | 0 | 0.0 | 0.0 | 0.00 | 0.00 | 0.00 | 78 | 1012.6 |
| 20260906094045 | 81 | 0 | 0.0 | 0.0 | 0.00 | 0.00 | 0.00 | 78 | 1012.4 |
| 20260906093544 | 81 | 0 | 0.0 | 0.0 | 0.00 | 0.00 | 0.00 | 78 | 1012.3 |
| 20260906093056 | 81 | 0 | 0.0 | 0.0 | 0.00 | 0.00 | 0.00 | 78 | 1012.4 |
| 20260906092544 | 81 | 0 | 0.0 | 0.0 | 0.00 | 0.00 | 0.00 | 77 | 1012.3 |
| 20260906092045 | 81 | 0 | 0.0 | 0.0 | 0.00 | 0.00 | 0.00 | 77 | 1012.3 |
| 20260906091550 | 81 | 0 | 0.0 | 3.5 | 0.00 | 0.00 | 0.00 | 77 | 1012.2 |
| 20260906091044 | 81 | 0 | 0.0 | 3.5 | 0.00 | 0.00 | 0.00 | 77 | 1012.2 |
| 20260906090544 | 82 | 0 | 0.0 | 2.6 | 0.00 | 0.00 | 0.00 | 76 | 1012.2 |
| 20260906090057 | 82 | 188 | 0.0 | 2.6 | 0.00 | 0.00 | 0.00 | 76 | 1012.1 |
| 20260906085545 | 82 | 0 | 0.0 | 3.5 | 0.00 | 0.00 | 0.00 | 76 | 1012.2 |
| 20260906085044 | 82 | 0 | 0.0 | 4.3 | 0.00 | 0.00 | 0.00 | 76 | 1012.3 |
| 20260906084556 | 82 | 192 | 1.7 | 4.3 | 0.00 | 0.00 | 0.00 | 75 | 1012.2 |
| 20260906084048 | 82 | 0 | 0.9 | 3.5 | 0.00 | 0.00 | 0.00 | 75 | 1012.3 |
| 20260906083545 | 82 | 182 | 0.0 | 2.6 | 0.00 | 0.00 | 0.00 | 75 | 1012.2 |
| 20260906083054 | 82 | 236 | 0.0 | 2.6 | 0.00 | 0.00 | 0.00 | 75 | 1012.3 |
| 20260906082544 | 82 | 206 | 0.0 | 4.3 | 0.00 | 0.00 | 0.00 | 75 | 1012.2 |
| 20260906082044 | 82 | 178 | 0.9 | 4.3 | 0.00 | 0.00 | 0.00 | 75 | 1012.2 |
| 20260906081551 | 82 | 178 | 0.9 | 5.2 | 0.00 | 0.00 | 0.00 | 75 | 1012.1 |
| 20260906081045 | 82 | 252 | 0.9 | 5.2 | 0.00 | 0.00 | 0.00 | 75 | 1012.2 |
| 20260906080544 | 82 | 204 | 0.0 | 3.5 | 0.00 | 0.00 | 0.00 | 76 | 1012.2 |
| 20260906080057 | 82 | 0 | 0.9 | 3.5 | 0.00 | 0.00 | 0.00 | 75 | 1012.1 |
| 20260906075543 | 82 | 0 | 0.0 | 3.5 | 0.00 | 0.00 | 0.00 | 75 | 1012.2 |
| 20260906075045 | 82 | 0 | 0.0 | 0.9 | 0.00 | 0.00 | 0.00 | 75 | 1012.3 |
| 20260906074554 | 82 | 0 | 0.0 | 0.9 | 0.00 | 0.00 | 0.00 | 75 | 1012.3 |
| 20260906074044 | 83 | 0 | 0.0 | 0.0 | 0.00 | 0.00 | 0.00 | 75 | 1012.3 |
| 20260906073544 | 83 | 0 | 0.0 | 0.0 | 0.00 | 0.00 | 0.00 | 75 | 1012.3 |
| 20260906073059 | 83 | 0 | 0.0 | 0.0 | 0.00 | 0.00 | 0.00 | 75 | 1012.5 |
| 20260906072544 | 83 | 0 | 0.0 | 0.9 | 0.00 | 0.00 | 0.00 | 74 | 1012.5 |
| 20260906072044 | 83 | 0 | 0.0 | 0.9 | 0.00 | 0.00 | 0.00 | 74 | 1012.4 |
| 20260906071552 | 83 | 0 | 0.0 | 0.9 | 0.00 | 0.00 | 0.00 | 74 | 1012.4 |
| 20260906071044 | 83 | 0 | 0.0 | 2.6 | 0.00 | 0.00 | 0.00 | 74 | 1012.5 |
| 20260906070544 | 83 | 0 | 0.0 | 2.6 | 0.00 | 0.00 | 0.00 | 74 | 1012.5 |
| 20260906070055 | 83 | 0 | 0.0 | 1.7 | 0.00 | 0.00 | 0.00 | 73 | 1012.4 |
| 20260906065544 | 84 | 0 | 0.0 | 1.7 | 0.00 | 0.00 | 0.00 | 72 | 1012.4 |
| 20260906065048 | 84 | 0 | 0.0 | 1.7 | 0.00 | 0.00 | 0.00 | 73 | 1012.5 |
| 20260906064551 | 84 | 249 | 0.0 | 1.7 | 0.00 | 0.00 | 0.00 | 72 | 1012.6 |
| 20260906064046 | 84 | 0 | 0.0 | 1.7 | 0.00 | 0.00 | 0.00 | 72 | 1012.5 |
| 20260906063548 | 84 | 0 | 0.0 | 1.7 | 0.00 | 0.00 | 0.00 | 72 | 1012.6 |
| 20260906063057 | 84 | 0 | 0.0 | 1.7 | 0.00 | 0.00 | 0.00 | 72 | 1012.4 |
| 20260906062543 | 84 | 0 | 0.0 | 2.6 | 0.00 | 0.00 | 0.00 | 72 | 1012.4 |
| 20260906062044 | 84 | 0 | 0.0 | 3.5 | 0.00 | 0.00 | 0.00 | 71 | 1012.5 |
| 20260906061556 | 84 | 0 | 0.0 | 3.5 | 0.00 | 0.00 | 0.00 | 72 | 1012.4 |
| 20260906061046 | 84 | 233 | 0.0 | 3.5 | 0.00 | 0.00 | 0.00 | 71 | 1012.5 |
| 20260906060547 | 84 | 185 | 0.9 | 3.5 | 0.00 | 0.00 | 0.00 | 71 | 1012.6 |
| 20260906060053 | 84 | 0 | 0.0 | 2.6 | 0.00 | 0.00 | 0.00 | 71 | 1012.7 |
| 20260906055544 | 84 | 0 | 0.0 | 0.9 | 0.00 | 0.00 | 0.00 | 71 | 1012.7 |
| 20260906055044 | 84 | 0 | 0.0 | 0.0 | 0.00 | 0.00 | 0.00 | 70 | 1012.6 |
| 20260906054558 | 84 | 0 | 0.0 | 0.0 | 0.00 | 0.00 | 0.00 | 70 | 1012.6 |
| 20260906054044 | 85 | 0 | 0.0 | 0.0 | 0.00 | 0.00 | 0.00 | 69 | 1012.6 |
| 20260906053545 | 85 | 0 | 0.0 | 0.0 | 0.00 | 0.00 | 0.00 | 69 | 1012.6 |
| 20260906053055 | 85 | 0 | 0.0 | 0.9 | 0.00 | 0.00 | 0.00 | 69 | 1012.6 |
| 20260906052544 | 85 | 0 | 0.0 | 1.7 | 0.00 | 0.00 | 0.00 | 69 | 1012.6 |
| 20260906052044 | 85 | 0 | 0.0 | 1.7 | 0.00 | 0.00 | 0.00 | 69 | 1012.6 |
| 20260906051603 | 85 | 0 | 0.0 | 4.3 | 0.00 | 0.00 | 0.00 | 68 | 1012.6 |
| 20260906051044 | 85 | 0 | 0.0 | 4.3 | 0.00 | 0.00 | 0.00 | 68 | 1012.7 |
| 20260906050547 | 86 | 0 | 1.7 | 4.3 | 0.00 | 0.00 | 0.00 | 67 | 1012.7 |
| 20260906050101 | 86 | 195 | 0.9 | 4.3 | 0.00 | 0.00 | 0.00 | 68 | 1012.7 |
| 20260906045544 | 86 | 161 | 0.9 | 4.3 | 0.00 | 0.00 | 0.00 | 67 | 1012.7 |
| 20260906045044 | 86 | 255 | 0.0 | 3.5 | 0.00 | 0.00 | 0.00 | 67 | 1012.6 |
| 20260906044556 | 86 | 193 | 0.0 | 4.3 | 0.00 | 0.00 | 0.00 | 66 | 1012.5 |
| 20260906044044 | 86 | 172 | 0.0 | 4.3 | 0.00 | 0.00 | 0.00 | 66 | 1012.6 |
| 20260906043543 | 86 | 178 | 0.9 | 2.6 | 0.00 | 0.00 | 0.00 | 66 | 1012.5 |
| 20260906043052 | 86 | 201 | 0.0 | 1.7 | 0.00 | 0.00 | 0.00 | 66 | 1012.5 |
| 20260906042544 | 86 | 181 | 0.0 | 1.7 | 0.00 | 0.00 | 0.00 | 66 | 1012.5 |
| 20260906042043 | 87 | 0 | 0.0 | 2.6 | 0.00 | 0.00 | 0.00 | 65 | 1012.5 |
| 20260906041551 | 87 | 194 | 0.0 | 2.6 | 0.00 | 0.00 | 0.00 | 65 | 1012.4 |
| 20260906041044 | 87 | 161 | 0.0 | 3.5 | 0.00 | 0.00 | 0.00 | 65 | 1012.4 |
| 20260906040544 | 87 | 194 | 0.9 | 4.3 | 0.00 | 0.00 | 0.00 | 65 | 1012.4 |
| 20260906040101 | 87 | 0 | 0.9 | 4.3 | 0.00 | 0.00 | 0.00 | 65 | 1012.4 |
| 20260906035545 | 87 | 181 | 1.7 | 5.2 | 0.00 | 0.00 | 0.00 | 64 | 1012.4 |
| 20260906035044 | 87 | 176 | 0.9 | 5.2 | 0.00 | 0.00 | 0.00 | 64 | 1012.6 |
| 20260906034603 | 87 | 162 | 1.7 | 5.2 | 0.00 | 0.00 | 0.00 | 63 | 1012.6 |
| 20260906034045 | 87 | 0 | 0.9 | 5.2 | 0.00 | 0.00 | 0.00 | 63 | 1012.5 |
| 20260906033543 | 88 | 165 | 1.7 | 5.2 | 0.00 | 0.00 | 0.00 | 62 | 1012.6 |
| 20260906033055 | 88 | 0 | 0.9 | 7.0 | 0.00 | 0.00 | 0.00 | 62 | 1012.6 |
| 20260906032547 | 88 | 245 | 1.7 | 7.8 | 0.00 | 0.00 | 0.00 | 62 | 1012.5 |
| 20260906032046 | 88 | 187 | 2.6 | 7.8 | 0.00 | 0.00 | 0.00 | 61 | 1012.7 |
| 20260906031555 | 88 | 180 | 2.6 | 7.0 | 0.00 | 0.00 | 0.00 | 61 | 1012.8 |
| 20260906031049 | 88 | 169 | 1.7 | 7.8 | 0.00 | 0.00 | 0.00 | 61 | 1012.7 |
| 20260906030547 | 88 | 154 | 1.7 | 7.8 | 0.00 | 0.00 | 0.00 | 61 | 1012.7 |
| 20260906030053 | 88 | 177 | 2.6 | 6.1 | 0.00 | 0.00 | 0.00 | 60 | 1012.7 |
| 20260906025546 | 88 | 159 | 1.7 | 7.8 | 0.00 | 0.00 | 0.00 | 60 | 1012.7 |
| 20260906025047 | 88 | 199 | 1.7 | 7.8 | 0.00 | 0.00 | 0.00 | 60 | 1012.5 |
| 20260906024553 | 88 | 222 | 1.7 | 7.8 | 0.00 | 0.00 | 0.00 | 60 | 1012.6 |
| 20260906024046 | 89 | 127 | 1.7 | 7.0 | 0.00 | 0.00 | 0.00 | 60 | 1012.5 |
| 20260906023543 | 89 | 200 | 2.6 | 7.0 | 0.00 | 0.00 | 0.00 | 60 | 1012.3 |
| 20260906023103 | 89 | 218 | 1.7 | 6.1 | 0.00 | 0.00 | 0.00 | 60 | 1012.3 |
| 20260906022550 | 89 | 81 | 0.9 | 6.1 | 0.00 | 0.00 | 0.00 | 60 | 1012.1 |
| 20260906022048 | 89 | 191 | 1.7 | 6.1 | 0.00 | 0.00 | 0.00 | 59 | 1012.0 |
| 20260906021558 | 89 | 51 | 0.0 | 7.0 | 0.00 | 0.00 | 0.00 | 60 | 1011.9 |
| 20260906021043 | 89 | 0 | 0.9 | 7.8 | 0.00 | 0.00 | 0.00 | 59 | 1011.8 |
| 20260906020547 | 89 | 57 | 1.7 | 7.8 | 0.00 | 0.00 | 0.00 | 59 | 1011.9 |
| 20260906020053 | 90 | 197 | 1.7 | 6.1 | 0.00 | 0.00 | 0.00 | 59 | 1011.9 |
| 20260906015543 | 90 | 212 | 0.9 | 6.1 | 0.00 | 0.00 | 0.00 | 59 | 1011.7 |
| 20260906015043 | 90 | 160 | 0.9 | 5.2 | 0.00 | 0.00 | 0.00 | 57 | 1011.7 |
| 20260906014554 | 91 | 0 | 0.9 | 5.2 | 0.00 | 0.00 | 0.00 | 57 | 1011.7 |
| 20260906014046 | 91 | 188 | 0.9 | 6.1 | 0.00 | 0.00 | 0.00 | 57 | 1011.5 |
| 20260906013547 | 91 | 134 | 1.7 | 8.7 | 0.00 | 0.00 | 0.00 | 56 | 1011.5 |
| 20260906013055 | 92 | 161 | 1.7 | 11.3 | 0.00 | 0.00 | 0.00 | 55 | 1011.4 |
| 20260906012543 | 92 | 186 | 2.6 | 12.2 | 0.00 | 0.00 | 0.00 | 55 | 1011.1 |
| 20260906012044 | 93 | 198 | 4.3 | 12.2 | 0.00 | 0.00 | 0.00 | 53 | 1011.1 |
| 20260906011607 | 93 | 90 | 3.5 | 11.3 | 0.00 | 0.00 | 0.00 | 51 | 1011.0 |
| 20260906011044 | 94 | 0 | 0.0 | 2.6 | 0.00 | 0.00 | 0.00 | 48 | 1010.9 |
| 20260906010543 | 94 | 0 | 0.0 | 6.1 | 0.00 | 0.00 | 0.00 | 47 | 1010.8 |
| 20260906010054 | 94 | 0 | 0.0 | 6.1 | 0.00 | 0.00 | 0.00 | 47 | 1010.9 |
| 20260906005543 | 94 | 130 | 0.9 | 5.2 | 0.00 | 0.00 | 0.00 | 46 | 1011.0 |
| 20260906005045 | 95 | 0 | 0.0 | 2.6 | 0.00 | 0.00 | 0.00 | 46 | 1011.0 |
| 20260906004601 | 95 | 0 | 0.0 | 2.6 | 0.00 | 0.00 | 0.00 | 46 | 1010.9 |
| 20260906004049 | 95 | 0 | 0.0 | 3.5 | 0.00 | 0.00 | 0.00 | 45 | 1010.9 |
| 20260906003544 | 95 | 126 | 0.0 | 3.5 | 0.00 | 0.00 | 0.00 | 45 | 1010.9 |
| 20260906003105 | 95 | 132 | 0.0 | 3.5 | 0.00 | 0.00 | 0.00 | 45 | 1010.9 |
| 20260906002543 | 96 | 117 | 0.0 | 2.6 | 0.00 | 0.00 | 0.00 | 44 | 1010.8 |
| 20260906002044 | 96 | 139 | 0.0 | 2.6 | 0.00 | 0.00 | 0.00 | 44 | 1010.8 |
| 20260906001602 | 96 | 0 | 0.0 | 5.2 | 0.00 | 0.00 | 0.00 | 44 | 1010.8 |
| 20260906001045 | 96 | 0 | 0.0 | 5.2 | 0.00 | 0.00 | 0.00 | 44 | 1010.8 |
| 20260906000543 | 97 | 161 | 0.0 | 3.5 | 0.00 | 0.00 | 0.00 | 44 | 1010.8 |
| 20260906000109 | 97 | 0 | 0.9 | 3.5 | 0.00 | 0.00 | 0.00 | 43 | 1010.7 |
| 20260905235547 | 97 | 0 | 0.0 | 3.5 | 0.00 | 0.00 | 0.00 | 43 | 1010.6 |
| 20260905235050 | 97 | 126 | 0.9 | 3.5 | 0.00 | 0.00 | 0.00 | 42 | 1010.7 |
| 20260905234600 | 97 | 0 | 0.0 | 2.6 | 0.00 | 0.00 | 0.00 | 42 | 1010.6 |
| 20260905234047 | 97 | 207 | 0.0 | 5.2 | 0.00 | 0.00 | 0.00 | 41 | 1010.6 |
| 20260905233544 | 97 | 138 | 0.0 | 5.2 | 0.00 | 0.00 | 0.00 | 42 | 1010.7 |
| 20260905233106 | 97 | 159 | 0.0 | 2.6 | 0.00 | 0.00 | 0.00 | 41 | 1010.7 |
| 20260905232543 | 98 | 107 | 0.0 | 3.5 | 0.00 | 0.00 | 0.00 | 40 | 1010.6 |
| 20260905232043 | 98 | 68 | 0.9 | 3.5 | 0.00 | 0.00 | 0.00 | 41 | 1010.7 |
| 20260905231551 | 98 | 0 | 0.0 | 2.6 | 0.00 | 0.00 | 0.00 | 40 | 1010.7 |
| 20260905231050 | 98 | 96 | 0.0 | 2.6 | 0.00 | 0.00 | 0.00 | 40 | 1010.6 |
| 20260905230547 | 98 | 0 | 0.0 | 5.2 | 0.00 | 0.00 | 0.00 | 40 | 1010.7 |
| 20260905230059 | 98 | 0 | 0.0 | 5.2 | 0.00 | 0.00 | 0.00 | 40 | 1010.6 |